Date,TemperatureHighF,TemperatureAvgF,TemperatureLowF,DewpointHighF,DewpointAvgF,DewpointLowF,HumidityHigh,HumidityAvg,HumidityLow,PressureMaxIn,PressureMinIn,WindSpeedMaxMPH,WindSpeedAvgMPH,GustSpeedMaxMPH,PrecipitationSumIn
2013-3-1,67.9,60.4,53.3,32.2,4.2,-42.8,36,8,1,29.99,29.90,11,1,11,0.01
2013-3-2,67.5,56.6,49.7,45.3,26.4,-46.2,53,35,1,30.04,29.95,23,4,23,0.00
2013-3-3,63.7,54.3,45.7,42.8,18.1,-49.1,51,24,1,30.14,29.96,20,4,20,0.00
2013-3-4,67.1,53.3,39.5,45.0,22.1,-52.2,54,26,1,30.21,30.12,14,2,14,0.00
2013-3-5,73.0,62.7,47.6,44.8,10.5,-48.5,38,9,1,30.18,30.08,16,0,16,0.00
2013-3-6,80.3,67.1,52.9,54.6,15.4,-20.8,54,15,3,30.10,29.94,22,4,22,0.00
2013-3-7,72.0,58.3,42.5,48.5,24.0,-51.2,55,28,4,30.18,30.07,13,2,13,0.00
2013-3-8,77.5,65.2,56.2,53.8,23.0,-42.0,54,21,1,30.19,30.09,16,1,16,0.00
2013-3-9,74.8,64.2,56.8,51.4,20.6,-23.3,45,19,2,30.18,30.09,14,2,14,0.00
2013-3-10,76.5,67.7,61.0,55.6,35.1,-38.2,49,33,2,30.16,30.06,17,4,17,0.00
2013-3-11,74.3,70.3,66.6,47.7,10.0,-35.3,41,9,2,30.10,29.95,19,2,19,0.00
2013-3-12,86.3,79.5,73.1,0.0,0.0,0.0,0,0,100,30.00,29.91,11,1,13,0.00
2013-3-13,78.8,69.3,56.6,56.0,22.9,-36.2,56,21,2,30.11,29.97,16,2,16,0.00
2013-3-14,74.9,63.3,52.1,49.9,21.3,-45.6,54,21,1,30.20,30.08,18,4,18,0.00
2013-3-15,74.3,63.6,50.7,53.6,26.8,-46.7,56,27,1,30.25,30.14,14,2,14,0.00
2013-3-16,76.3,66.8,56.4,55.7,24.9,-38.2,50,23,2,30.19,30.09,14,1,16,0.00
2013-3-17,76.8,67.6,59.0,46.3,5.4,-41.6,37,5,1,30.14,30.02,15,0,15,0.00
2013-3-18,85.6,77.4,69.5,0.0,0.0,0.0,0,0,100,30.07,29.96,18,1,18,0.09
2013-3-19,85.0,73.7,69.5,0.0,0.0,0.0,0,0,100,30.01,29.82,10,1,10,0.06
2013-3-20,87.5,75.1,64.9,15.9,0.1,-35.1,12,0,2,29.97,29.80,20,1,20,0.01
2013-3-21,79.3,69.8,57.3,51.5,23.7,-39.1,53,20,2,29.94,29.83,12,2,12,0.00
2013-3-22,82.0,70.7,59.7,20.3,-0.4,-34.7,15,0,1,30.00,29.89,16,1,16,0.00
2013-3-23,92.9,81.5,71.6,0.0,0.0,0.0,0,0,100,29.98,29.80,14,0,14,0.02
2013-3-24,91.5,82.0,74.4,43.6,2.9,-26.9,25,2,2,29.88,29.69,26,2,26,0.00
2013-3-25,83.3,76.9,65.6,56.1,22.1,-33.6,44,18,13,29.99,29.74,15,1,15,0.00
2013-3-26,70.2,62.0,52.4,42.3,37.5,31.0,54,41,24,30.21,29.98,20,5,20,0.00
2013-3-27,72.0,57.3,41.1,47.5,29.8,-52.5,55,37,1,30.25,30.16,15,2,15,0.00
2013-3-28,75.0,61.0,47.3,50.7,27.8,-47.1,51,27,4,30.26,30.16,14,1,14,0.00
2013-3-29,75.3,65.9,52.7,55.0,46.1,18.8,55,49,26,30.28,30.20,15,2,15,0.00
2013-3-30,77.1,68.3,56.4,55.0,36.5,-43.2,53,34,1,30.26,30.16,15,2,15,0.00
2013-3-31,81.0,73.7,61.5,45.3,7.0,-31.2,36,6,1,30.19,30.05,16,1,16,0.00